Location: Boiro
(42.6475°N, 8.8834°W)
Time: 23:21:12
(UTC+01:00)

A-11 Canister half - Pass Details

Date: 04 December 2021
Orbit: 1516 x 1684 km, 47.2° (Epoch: 18 January)

Event Time Altitude Azimuth Distance (km) Brightness Sun altitude
Rises 16:30:26 0° 292° (WNW) 4,925 11.9 12.4°
Reaches altitude 10° 16:34:30 10° 279° (W) 3,944 11.7 11.9°
Maximum altitude 16:41:39 22° 233° (SW) 3,067 12.7 10.9°
Drops below altitude 10° 16:48:48 10° 187° (S) 3,922 12.1 10.0°
Sets 16:52:53 0° 174° (S) 4,890 12.2 9.4°
